Lid_Strength_Index
0 3 2 5 10 11 14 12 10 9 10 9 8 7 8 8 9 13 2 1 0 -0 -1 -1 -2 -2 -1 -2 -2 -2 -2 -2 -2 -2 -2 -2 -2 -2 -2 -2 -2 -2 -2 -2 -1 -1 -2 -2 -2
2 3 5 8 12 15 14 12 10 9 8 7 6 7 7 9 5 4 3 1 0 -0 -1 -1 -1 -2 -2 -2 -2 -2 -2 -2 -1 -1 -1 -2 -2 -2 -2 -2 -3 -2 -2 -2 -2 -2 -2 -2 -2
2 3 8 10 13 15 14 11 9 8 7 7 7 6 7 8 5 3 2 1 0 -0 -1 -1 -1 -2 -2 -2 -2 -2 -2 -2 -2 -2 -1 -2 -2 -2 -2 -2 -2 -2 -2 -2 -2 -2 -2 -2 -2
5 6 8 12 13 12 12 10 8 9 8 7 7 8 6 6 3 2 1 1 0 -0 -0 -1 -1 -2 -2 -2 -2 -2 -2 -2 -2 -2 -2 -2 -2 -2 -2 -2 -2 -2 -2 -2 -2 -2 -2 -2 -2
6 8 11 12 13 11 11 8 8 9 9 9 8 8 7 5 2 2 1 1 1 0 -0 -1 -1 -1 -2 -2 -2 -2 -2 -2 -2 -2 -2 -2 -2 -2 -2 -2 -2 -2 -2 -2 -2 -2 -2 -2 -2
8 9 12 14 13 11 11 9 8 9 9 9 9 7 7 4 3 2 2 2 0 0 -0 -1 0 -0 -1 -1 -2 -2 -2 -2 -2 -2 -2 -2 -2 -2 -2 -2 -2 -2 -2 -2 -2 -2 -2 -2 -2
9 10 13 12 13 12 10 9 9 10 9 9 7 9 7 4 3 2 2 1 0 -0 -0 -0 -0 -0 0 -0 -1 -1 -2 -2 -2 -2 -3 -3 -3 -3 -2 -3 -2 -2 -2 -2 -2 -2 -2 -2 -2
8 10 12 13 12 12 10 9 9 9 10 8 7 9 9 5 3 2 2 2 0 1 0 -0 0 -0 -0 -0 1 0 -1 -1 -2 -2 -2 -2 -2 -2 -2 -2 -2 -2 -2 -2 -2 -2 -2 -2 -2
9 12 14 12 12 11 9 10 9 9 8 9 7 7 6 4 3 3 3 3 1 1 0 0 0 0 -0 -0 1 1 0 -0 -0 -1 -0 0 -0 -0 -0 -1 -2 -2 -2 -2 -2 -2 -1 -1 -1
10 13 12 11 11 11 9 10 9 10 10 10 9 8 4 3 4 4 4 4 3 2 1 0 0 0 0 -1 0 0 -0 -0 -0 -0 0 0 1 1 0 0 -1 -1 -1 -2 -2 -1 -0 1 3
10 12 11 10 9 9 9 10 9 10 12 10 9 8 4 5 4 4 4 4 3 2 1 0 0 0 0 -0 -0 -0 -0 -0 0 0 1 1 1 1 2 2 2 2 1 1 0 2 3 3 3
12 10 10 8 8 9 10 9 10 10 10 8 8 7 5 5 4 4 4 4 4 2 2 1 0 0 -0 -0 -0 -0 -0 -0 0 0 0 1 2 2 3 3 4 4 4 4 4 4 4 4 5
12 11 9 8 9 10 9 10 10 10 9 9 7 6 4 4 4 4 4 4 4 3 2 2 1 0 -0 0 -0 -0 -0 -0 -0 -0 -0 0 1 3 3 3 3 4 4 4 5 5 5 6 6
10 10 10 9 9 9 10 11 11 9 9 9 8 8 6 5 4 5 5 4 4 3 3 2 2 1 0 0 0 0 -0 -0 -0 -0 0 -0 0 2 3 3 3 3 2 3 4 5 6 8 8
10 12 11 10 10 10 10 12 11 10 9 9 9 10 8 6 5 4 3 4 3 3 2 2 2 2 1 1 1 0 0 0 0 0 0 0 0 2 3 2 2 2 3 4 6 7 8 9 10
12 12 15 11 10 10 11 15 11 10 10 9 10 10 10 9 7 4 4 3 3 3 3 2 1 2 2 1 1 1 1 0 0 0 0 0 0 1 2 3 3 2 4 6 7 8 9 10 11
13 16 15 13 10 10 12 14 10 9 10 11 11 10 10 10 9 7 5 3 3 3 2 2 2 2 2 3 3 2 2 2 1 0 0 0 1 1 2 3 3 4 6 7 8 8 10 11 12
16 16 14 15 11 11 13 13 11 9 10 10 10 10 10 10 9 8 7 5 2 3 2 2 2 2 2 3 3 3 3 2 1 1 1 1 1 1 2 3 4 5 7 8 8 9 10 11 12
13 14 15 14 11 12 13 13 11 10 11 12 11 10 10 9 8 8 7 6 4 3 3 2 3 3 2 3 4 4 3 3 3 3 1 1 1 1 2 3 4 5 7 8 8 9 11 12 12
13 15 15 13 12 13 13 13 12 11 10 10 10 11 11 10 9 8 9 8 6 3 3 2 2 3 2 2 2 2 4 5 4 5 4 0 1 1 1 2 4 5 7 8 9 9 11 12 12
13 15 15 14 13 14 15 16 14 12 11 10 10 10 10 10 9 9 9 9 7 5 3 2 2 3 3 3 5 6 6 7 6 6 6 4 2 1 1 3 4 5 5 8 8 9 11 12 12
14 12 12 13 15 18 14 20 15 12 12 12 10 11 10 10 10 9 9 9 9 6 4 2 2 3 3 4 5 4 4 4 4 3 4 6 5 2 2 3 4 4 5 6 8 9 10 11 13
13 11 12 13 15 16 17 18 16 14 14 12 12 11 10 10 10 9 9 9 8 7 7 5 5 4 4 4 4 4 4 4 8 7 7 7 7 5 4 3 4 4 4 5 7 9 8 10 11
10 11 12 13 15 20 16 17 18 16 14 13 12 11 10 10 7 8 8 8 8 8 8 7 6 6 6 4 5 5 4 7 7 7 6 6 7 6 5 5 4 4 4 5 6 8 9 10 10
12 14 18 19 20 20 16 18 16 13 12 12 12 12 11 10 9 9 9 9 8 8 8 8 7 7 7 6 5 6 5 6 6 6 6 7 6 6 5 5 5 5 5 5 6 8 9 9 10
12 14 18 21 20 19 17 19 15 12 11 11 11 11 11 11 10 10 9 9 9 9 8 8 8 8 7 7 6 5 6 5 5 6 5 6 6 6 6 6 5 5 5 5 6 7 8 8 9
13 14 12 16 22 20 18 16 13 11 11 10 11 10 10 9 9 8 9 9 8 9 9 8 8 8 7 7 7 6 6 6 6 6 6 5 6 7 8 7 7 7 7 6 6 7 8 9 10
12 11 16 16 22 22 19 18 16 14 12 10 10 10 10 9 9 9 9 9 9 9 9 9 8 8 8 8 7 6 6 6 6 7 7 6 7 8 9 9 8 8 8 7 7 8 8 9 9
14 15 15 14 17 20 22 18 14 13 11 12 11 10 10 9 8 9 8 9 9 9 8 8 8 8 8 8 8 8 7 7 7 7 7 7 8 9 10 10 10 9 9 8 8 8 9 10 10
13 14 14 17 19 18 18 17 12 12 12 11 11 10 10 10 9 9 9 9 10 9 9 9 8 9 8 8 8 8 8 8 8 7 7 8 8 10 10 11 11 11 10 10 9 10 10 10 12